Duluth International, MN

12:52 PM CDT on August 16, 2017 (GMT -0500)
Duluth International | | Change Station
Active Advisory: Beach Hazard Statement

Elev 1427 ft 46.84 °N, 92.19 °W | Updated 57 minutes ago

Overcast
Overcast
63 °F
Feels Like 63 °F
N
13
Wind Variable Wind from East

Today
High -- | Low -- °F
--% Chance of Precip.
Yesterday
High -- | Low -- °F
Precip. -- in
Pressure 29.98 in
Visibility 10.0 miles
Clouds Few 1000 ft
Overcast 4500 ft
Dew Point 57 °F
Humidity 81%
Rainfall 0.00 in
Snow Depth Not available.
6:08 AM 8:16 PM
Waning Crescent, 31% visible
METAR KDLH 161655Z 10011KT 10SM FEW010 OVC045 17/14 A2997 RMK AO2 SLP151 T01720139
Pressure 29.98 in
Visibility 10.0 miles
Clouds Few 1000 ft
Overcast 4500 ft
Dew Point 57 °F
Humidity 81%
Rainfall 0.00 in
Snow Depth Not available.
6:08 AM 8:16 PM
Waning Crescent, 31% visible
METAR KDLH 161655Z 10011KT 10SM FEW010 OVC045 17/14 A2997 RMK AO2 SLP151 T01720139

Get Your Daily Forecast Email!

Thanks for signing up!

Be on the lookout for a verification email in your inbox.

You'll start receiving severe weather alerts in your inbox..

×

10-Day Weather Forecast

Almanac

Astronomy

Aug. 16, 2017 Rise Set
Actual Time
Civil Twilight
Nautical Twilight
Astronomical Twilight
Moon
Length of Visible Light
Length of Day
Tomorrow will be .
, % of the Moon is Illuminated

Today's Extremes

State Highs State Lows

Community

WunderPhotos

Category 6

Welcome to Category 6. This is the collective home for Weather Underground's featured writeups by Dr. Jeff Masters (right), Bob Henson (left), Chris Burt, and other regular contributors.

Nearby

Air Quality

  Air Quality AQ Index Pollutant
Not available.

Snow Depth

Station Depth Elevation

Earthquake Activity

City Distance Mag. Time & Date
Minimum magnitude displayed is 2.5.

Coastal Water Temperatures

Place Temperature

Stations

Nearby Weather Stations

Station Location Temp. Windchill Dew Point Humidity Wind Precip. Elev Updated Type
                   

Watches & Warnings

Beach Hazard Statement
Issued: 5:08 AM CDT Aug. 16, 2017 – National Weather Service

... Beach hazards statement in effect through this evening...

The National Weather Service in Duluth has issued a beach hazards
statement for dangerous swimming conditions, which is in effect through
this evening.

* Location... Park Point beach

* dangerous swimming conditions are expected along the Lake
Superior shoreline due to high wave action and strong rip
currents.

* High wave action alone can make swimming difficult on days
such as this. Incoming waves in rapid succession can tire a
swimmer quickly.

Precautionary/preparedness actions...

Rip currents are powerful channels of water flowing quickly away
from shore... which occur most often at low spots in sandbars...
near shoreline structures such as peninsulas or breakwalls... and
near river mouths.

For additional safety information and precautions... please visit
www.Weather.Gov/Duluth



Le